Location: Newark
(39.0083°N, 20.7336°E)
Time: 08:45:06
(UTC+00:00)

Nauka - Pass Details

Date: 28 September 2021
Orbit: 417 x 423 km, 51.6° (Epoch: 22 October)

Event Time Altitude Azimuth Distance (km) Brightness Sun altitude
Rises 17:25:54 0° 313° (NW) 2,364 ? -12.8°
Reaches altitude 10° 17:29:34 10° 355° (N) 1,501 ? -13.5°
Maximum altitude 17:30:22 11° 9° (N) 1,463 ? -13.6°
Drops below altitude 10° 17:31:10 10° 23° (NNE) 1,501 ? -13.8°
Enters shadow 17:32:05 - 37° (NE) 1,628 ? -13.9°
